Terminal Aerodrome Forecast
Issued by NWS

Home | Current Version | Previous Version | Graphics & Text | Print | Product List | Glossary On
Versions: 1 2 3 4 5 6 7 8 9 10 11 12 13 14 15 16 17 18 19
000
FTUS43 KPAH 011518 AAC
TAFOWB
TAF AMD
KOWB 011518Z 0115/0212 29012G20KT P6SM SCT020
     FM011600 29015G25KT P6SM OVC025
     FM012300 32010KT P6SM SKC=

USA.gov is the U.S. government's official web portal to all federal, state and local government web resources and services.